Home > Weather > Tarn Taran Sahib > Past weeks

Flag for India Weather for the Past 2 Weeks in Tarn Taran Sahib, Punjab, India

Now
66 °F

Scattered clouds.


Feels Like: 66 °F
Forecast: 48 / 67 °F
Wind: No wind

Location: Amritsar Airport

Current Time: Feb 6, 2016 at 5:25:26 PM

Latest Report: Feb 6, 2016 at 4:30 PM


Visibility: 2 mi

Pressure: 29.89 "Hg

Humidity: 60%

Dew point: 52 °F

Location of Tarn Taran SahibLocation

Historic Weather in Tarn Taran Sahib — Graph

°F

Tarn Taran Sahib Temperature Yesterday

Maximum temperature yesterday: 72 °F (at 2:00 PM)
Minimum temperature yesterday: 43 °F (at 8:00 AM)
Average temperature yesterday: 61 °F

High & Low Weather Summary for the Past Weeks

 TemperatureHumidityPressure
High72 °F (Feb 4, 1:30 PM)100% (Jan 22, 3:30 PM)30.21 "Hg (Jan 22, 3:30 PM)
Low36 °F (Jan 24, 12:30 AM)26% (Feb 1, 4:30 PM)29.89 "Hg (Feb 6, 3:30 AM)
Average53 °F91%30.05 "Hg
* Reported Jan 22 3:30 PM — Feb 6 4:00 PM, Tarn Taran Sahib, Weather by CustomWeather, © 2016

Note: Actual official high and low records may vary slightly from our data, if they occured in-between our weather recording intervals... More about our weather records

Advertising

Tarn Taran Sahib Weather History for the Previous 24 Hours

 ConditionsComfort  
Time TempWeatherWind HumidityBarometerVisibility
4:00 PM
Sat, Feb 6
68 °FScattered clouds.5 mph56%29.89 "Hg2 mi
3:30 PM70 °FScattered clouds.6 mph50%29.89 "Hg3 mi
2:30 PM70 °FHaze.8 mph43%29.92 "Hg3 mi
2:00 PM70 °FHaze.8 mph43%29.92 "Hg3 mi
1:30 PM70 °FHaze.8 mph40%29.95 "Hg3 mi
12:00 PM70 °FHaze.2 mph46%29.95 "Hg2 mi
11:30 AM66 °FHaze.2 mph56%29.98 "Hg1 mi
11:00 AM66 °FHaze.3 mph60%29.95 "Hg1 mi
10:30 AM63 °FFog.No wind88%29.95 "Hg1 mi
10:00 AM59 °FFog.No wind100%29.95 "Hg1 mi
9:30 AM55 °FFog.No wind100%29.95 "Hg1 mi
9:00 AM50 °FFog.No wind100%29.95 "Hg1 mi
8:30 AM46 °FFog.No wind100%29.92 "Hg1 mi
7:30 AM43 °FFog.No wind100%29.92 "Hg0 mi
6:30 AM45 °FFog.No wind100%29.89 "Hg1 mi
6:00 AM45 °FFog.No wind100%29.89 "Hg1 mi
5:30 AM45 °FFog.No wind100%29.89 "Hg1 mi
3:30 AM46 °FFog.No wind100%29.89 "Hg1 mi
2:30 AM46 °FFog.No wind100%29.92 "Hg1 mi
2:00 AM48 °FFog.No wind100%29.92 "Hg1 mi
1:30 AM46 °FFog.No wind100%29.92 "Hg1 mi
1:00 AM48 °FFog.No wind100%29.95 "Hg1 mi
12:30 AM48 °FFog.No wind100%29.95 "Hg1 mi
12:00 AM50 °FFog.No wind100%29.95 "Hg1 mi
11:30 PM
Fri, Feb 5
50 °FFog.No wind100%29.95 "Hg1 mi
11:00 PM50 °FFog.No wind100%29.95 "Hg1 mi
10:30 PM52 °FFog.No wind100%29.95 "Hg2 mi
9:30 PM54 °FFog.No wind100%29.95 "Hg2 mi
9:00 PM54 °FFog.No wind100%29.95 "Hg2 mi
8:30 PM55 °FFog.No wind94%29.95 "Hg2 mi
8:00 PM57 °FFog.No wind82%29.95 "Hg2 mi
7:30 PM59 °FFog.No wind82%29.95 "Hg2 mi
7:00 PM61 °FFog.No wind72%29.95 "Hg2 mi
6:30 PM64 °FScattered clouds.No wind64%29.95 "Hg3 mi
5:30 PM70 °FScattered clouds.No wind50%29.95 "Hg3 mi
5:00 PM72 °FScattered clouds.5 mph47%29.95 "Hg3 mi
Weather by CustomWeather, © 2016

See weather overviewHow to use our weather pages